Regional Weather Roundup
Issued by NWS Albany, NY

Home | Current Version | Previous Version | Text Only | Print | Product List | Glossary On
Versions: 1 2 3 4 5 6 7 8 9 10 11 12 13 14 15 16 17 18 19 20 21 22 23 24 25 26 27 28 29 30 31 32 33 34 35 36 37 38 39 40 41 42 43 44 45
000
ASUS41 KALY 221010
RWRALY

NEW YORK STATE HOURLY WEATHER ROUNDUP
NATIONAL WEATHER SERVICE ALBANY NY
500 AM EST MON DEC 22 2014

NOTE: "FAIR" INDICATES FEW OR NO CLOUDS BELOW 12,000 FEET WITH NO
SIGNIFICANT WEATHER AND/OR NO OBSTRUCTIONS TO VISIBILITY.

NYZ032-033-038>043-046>054-057>066-NYZ062>081-221100-
EAST


CITY           SKY/WX    TMP DP  RH WIND       PRES   REMARKS
ALBANY         FLURRIES  29  24  82 N5        30.36S WCI  24
GLENS FALLS    NOT AVBL
POUGHKEEPSIE   CLOUDY    32  27  81 N3        30.34S
NEWBURGH       CLOUDY    30  28  93 CALM      30.33S
MONTGOMERY     LGT SNOW  31  28  89 NE5       30.32S FOG     WCI  26
WHITE PLAINS   CLOUDY    33  31  92 N5        30.30S WCI  29
ISLIP          CLOUDY    38  34  85 N8        30.29F WCI  32
NEW YORK CITY  CLOUDY    36  31  82 N3        30.32S
CENTRAL PARK   CLOUDY    36  30  79 VRB3      30.34S
$$

NYZ005>009-017-018-044>046-055-056-221100-
CENTRAL


CITY           SKY/WX    TMP DP  RH WIND       PRES   REMARKS
FULTON         CLOUDY    31  22  69 SE3       30.29F
SYRACUSE       CLOUDY    29  25  85 E5        30.29F WCI  24
ROME           CLOUDY    29  23  78 E6        30.33F WCI  23
ELMIRA         MOCLDY    26  21  81 CALM      30.25F
BINGHAMTON     CLOUDY    26  23  88 SE5       30.22F WCI  20
MONTICELLO     CLOUDY    28  27  93 E7        30.27F WCI  21
$$

NYZ026>034-041>043-221100-
NORTH


CITY           SKY/WX    TMP DP  RH WIND       PRES   REMARKS
WATERTOWN      CLOUDY    23  17  78 E6        30.33S WCI  16
FORT DRUM      NOT AVBL
MASSENA        CLOUDY    15  13  91 E5        30.40S FOG     WCI   8
SARANAC LAKE   CLEAR      2  -2  83 CALM      30.26R
PLATTSBURGH    CLOUDY    21  19  92 N5        30.38S FOG     WCI  15
$$

NYZ001>004-010>016-019>021-221100-
WEST


CITY           SKY/WX    TMP DP  RH WIND       PRES   REMARKS
NIAGARA FALLS  CLOUDY    30  24  78 E6        30.20F WCI  24
BUFFALO        MOCLDY    29  22  75 SE6       30.20F WCI  23
DUNKIRK        PTCLDY    24  21  88 E6        30.18F WCI  17
JAMESTOWN      CLEAR     21  18  86 SE6       30.11F WCI  14
WELLSVILLE     CLEAR     21  17  84 SE9       30.15F WCI  11
ROCHESTER      PTCLDY    29  20  69 SE5       30.25F WCI  24
PENN YAN       PTCLDY    24  19  81 SE5       30.24F WCI  18
$$

             KEY
       WCI = WIND CHILL INDEX
       VSB = VISIBILITY
       HX  = HEAT INDEX
$$



USA.gov is the U.S. government's official web portal to all federal, state and local government web resources and services.